Home   Weather   Vaduz   Past weeks

Flag for Liechtenstein Past Weather in Vaduz, Liechtenstein — Yesterday and Last 2 Weeks

Now
13 °F

Cold.


Feels Like: 7 °F
Forecast: 22 / 41 °F
Wind: 3 mph from North

Location: Vaduz

Current Time: Jan 22, 2017 at 7:13:44 am

Latest Report: Jan 22, 2017 at 6:00 am


Visibility: N/A

Pressure: 30.42 "Hg

Humidity: 89%

Dew Point: 10 °F

Location of VaduzLocation

Past Weather in Vaduz — Graph

°F

Vaduz Temperature Yesterday

Maximum temperature yesterday: 19 °F (at 4:00 pm)
Minimum temperature yesterday: 14 °F (at 9:00 am)
Average temperature yesterday: 17 °F

High & Low Weather Summary for the Past Weeks

 TemperatureHumidityPressure
High51 °F (Jan 12, 10:00 pm)100% (Jan 9, 3:00 am)30.71 "Hg (Jan 9, 3:00 am)
Low6 °F (Jan 19, 8:00 am)43% (Jan 12, 10:00 pm)29.44 "Hg (Jan 13, 2:00 am)
Average25 °F82%30.29 "Hg
* Reported Jan 7 5:00 am — Jan 22 5:00 am, Vaduz, Weather by CustomWeather, © 2017

Note: Actual official high and low records may vary slightly from our data, if they occured in-between our weather recording intervals... More about our weather records

Advertising

Vaduz Weather History for the Previous 24 Hours

Scroll right to see more
 ConditionsComfort  
Time TempWeatherWind HumidityBarometerVisibility
5:00 am
Sun, Jan 22
13 °FCold.2 mph91%30.44 "HgN/A
4:00 am13 °FCold.3 mph90%30.45 "HgN/A
3:00 am14 °FCold.2 mph95%30.45 "HgN/A
2:00 am15 °FCold.3 mph95%30.46 "HgN/A
1:00 am15 °FFog.3 mph91%30.45 "Hg1 mi
12:00 am16 °FCold.1 mph94%30.46 "HgN/A
11:00 pm
Sat, Jan 21
16 °FCold.3 mph90%30.47 "HgN/A
10:00 pm17 °FFog.1 mph94%30.47 "Hg1 mi
9:00 pm17 °FCold.2 mph95%30.48 "HgN/A
8:00 pm17 °FCold.2 mph94%30.48 "HgN/A
7:00 pm18 °FFog.1 mph94%30.47 "Hg1 mi
6:00 pm18 °FCold.1 mph94%30.47 "HgN/A
5:00 pm19 °FCold.3 mph90%30.47 "HgN/A
4:00 pm19 °FFog.3 mph90%30.47 "Hg1 mi
3:00 pm18 °FCold.2 mph90%30.47 "HgN/A
2:00 pm18 °FCold.2 mph87%30.48 "HgN/A
1:00 pm17 °FFog.2 mph86%30.51 "Hg1 mi
12:00 pm16 °FCold.3 mph87%30.53 "HgN/A
11:00 am16 °FCold.5 mph86%30.55 "HgN/A
10:00 am15 °FFog.2 mph79%30.55 "Hg1 mi
9:00 am14 °FCold.2 mph94%30.55 "HgN/A
8:00 am14 °FCold.2 mph94%30.55 "HgN/A
7:00 am14 °FOvercast.3 mph100%30.54 "Hg2 mi
Weather by CustomWeather, © 2017

See weather overviewHow to use our weather pages